Theta_e
329 326 323 320 319 318 318 318 318 317 317 317 318 318 319 319 319 322 326 328 329 329 329 329 330 330 330 329 329 328 329 329 329 329 328 327 328 329 329 328 328 326 324 325 327 328 328 328 328 327 326 326 326 325 326 325 323 320 318 317 318 319 320 320 320 320 318 317 317 318 319 320 320 320 320 322 323 325 326 326 327 328 330 332 334
330 327 324 321 320 318 318 319 318 318 317 317 318 318 319 318 320 324 327 328 330 329 330 330 330 331 331 330 329 328 329 330 330 329 329 328 328 329 329 329 327 326 324 324 324 326 327 327 328 328 328 328 326 325 325 326 326 325 321 319 321 322 322 321 321 321 320 317 317 318 318 319 320 320 320 322 324 325 326 327 326 327 330 331 332
331 330 324 321 319 319 319 321 320 318 317 317 318 318 318 319 322 325 327 329 330 330 330 330 331 331 331 330 329 329 329 330 330 330 329 329 328 328 329 328 327 326 326 325 324 324 324 325 325 325 326 327 327 325 326 326 327 327 325 324 324 323 322 322 322 323 322 319 318 318 318 318 319 319 319 322 324 326 326 327 327 327 329 331 331
332 331 326 322 319 320 323 325 322 320 318 317 318 318 318 320 324 326 325 327 329 330 330 329 329 330 330 329 329 329 329 330 330 330 329 329 328 328 329 328 326 326 326 326 324 322 322 322 321 321 323 326 326 326 327 328 327 328 327 327 327 325 323 322 323 323 322 320 319 318 318 318 318 318 320 322 325 326 326 327 327 328 330 331 331
333 332 328 322 320 323 328 327 324 320 318 317 318 319 318 320 323 323 324 327 330 331 330 329 329 329 330 329 329 329 328 329 329 330 329 329 328 328 329 328 326 326 326 324 322 321 320 320 319 320 322 325 326 327 328 329 328 328 327 327 327 326 323 322 323 323 322 321 320 318 317 318 318 318 320 322 324 326 326 327 328 328 330 331 332
334 334 330 323 322 330 330 327 324 321 319 317 319 319 319 320 320 321 325 330 331 330 330 329 330 330 330 330 329 328 327 328 329 329 329 328 328 328 329 329 328 327 326 324 322 321 321 320 319 319 321 324 326 327 327 328 328 328 327 327 327 327 323 322 322 322 321 321 319 318 317 318 318 319 320 322 324 325 325 327 328 328 329 331 332
335 336 332 324 327 335 334 328 325 321 318 318 319 320 320 320 320 322 327 331 331 329 328 327 328 329 329 328 327 326 326 327 327 327 327 327 328 329 330 330 328 327 326 325 324 322 321 321 320 319 321 323 325 325 326 326 326 327 327 327 328 326 323 322 322 322 322 320 318 318 318 317 319 321 322 323 323 324 325 326 327 328 329 330 332
337 337 333 326 329 338 336 330 325 321 319 320 320 321 321 321 320 322 326 328 327 326 325 325 326 326 325 324 324 324 324 324 324 325 326 328 329 331 331 330 328 327 327 327 325 322 322 321 320 320 321 323 324 324 324 323 323 324 325 327 327 325 323 322 321 321 321 320 318 318 318 317 318 321 323 323 324 324 324 324 326 327 328 329 331
339 338 334 327 332 339 337 330 323 321 321 320 321 321 321 322 321 321 323 323 323 323 324 325 324 323 323 323 323 324 324 323 323 325 327 329 329 330 329 328 327 327 328 327 324 322 322 322 321 321 321 322 323 323 322 322 323 323 324 326 325 324 323 322 321 321 321 319 318 317 317 317 319 322 323 324 324 325 324 324 325 326 327 328 330
342 339 334 332 335 339 337 331 324 320 321 321 321 322 321 322 322 321 321 321 321 323 323 324 323 322 322 323 324 325 326 325 325 326 327 328 328 328 328 327 328 328 328 327 324 322 322 321 321 321 321 322 322 322 322 322 322 323 324 325 324 323 322 321 322 321 320 319 317 317 318 318 319 322 323 323 323 324 325 325 325 325 326 327 329
344 340 336 335 337 337 335 332 325 321 322 322 321 322 322 322 322 321 322 322 322 322 322 322 322 322 322 323 324 326 326 326 326 326 327 328 328 328 328 328 328 328 328 327 325 323 322 322 321 321 321 321 320 320 321 320 321 322 322 322 321 321 322 322 322 321 320 319 317 317 318 318 318 320 321 320 320 322 324 325 326 325 325 326 328
345 341 338 338 337 336 334 332 326 322 322 323 322 323 322 322 322 322 321 322 322 322 322 322 322 321 322 323 323 325 326 326 326 326 327 328 328 328 328 327 327 327 328 327 327 325 322 321 322 321 320 319 318 318 319 319 320 320 320 320 320 320 321 322 322 321 320 318 318 318 318 317 317 318 319 319 319 319 321 324 325 326 326 326 326
344 341 340 339 336 334 334 334 329 324 323 323 323 322 322 322 322 322 322 322 322 322 322 322 322 322 322 323 323 323 325 326 327 327 327 328 328 328 328 327 327 326 327 327 327 325 322 321 322 322 321 320 318 318 318 318 319 319 320 320 320 320 321 321 322 322 320 318 318 318 317 317 318 317 317 317 318 320 321 323 325 325 326 326 325
344 341 340 338 335 333 334 335 331 325 323 323 322 322 322 322 322 322 322 322 322 323 323 323 322 322 323 324 323 324 325 326 327 327 328 328 328 328 327 327 325 325 325 326 327 325 323 321 322 322 322 321 319 318 317 317 318 319 319 319 320 321 321 322 323 323 320 318 318 318 318 318 318 317 317 318 319 321 321 322 324 325 325 326 326
343 341 340 337 334 333 334 334 331 326 323 323 322 322 322 323 322 322 322 322 323 323 323 323 324 324 324 324 324 325 326 327 327 327 327 328 328 328 327 326 324 324 324 325 326 326 324 322 321 322 322 322 321 320 318 317 317 317 317 318 320 321 321 322 323 324 321 319 318 319 319 318 318 317 317 318 320 321 322 322 323 324 324 326 326
342 340 339 336 333 333 333 334 333 328 323 323 323 322 322 322 321 322 322 322 323 323 323 324 326 326 326 326 325 326 327 328 328 328 328 328 328 328 327 325 324 324 324 325 326 326 324 321 320 321 322 322 322 321 319 317 316 317 317 319 320 321 321 322 323 323 322 320 319 320 320 319 318 317 316 318 320 321 321 322 323 324 324 325 327
341 339 337 336 334 334 332 333 334 330 324 323 323 322 322 323 322 322 323 323 323 324 325 327 328 329 329 328 327 327 328 328 328 329 329 328 328 327 327 325 324 323 324 325 326 324 322 320 320 320 321 322 322 322 320 317 316 317 318 320 321 322 321 321 322 323 323 321 320 320 320 319 318 317 317 319 320 321 321 322 323 323 324 325 326
341 338 338 338 336 333 333 334 335 331 327 327 326 324 323 323 323 323 323 323 324 324 326 329 331 334 333 331 329 328 328 329 329 328 329 328 327 327 327 325 324 324 324 324 325 323 321 320 320 320 321 322 322 322 319 317 317 318 320 322 323 322 321 321 321 322 323 322 321 321 320 319 318 317 318 318 319 320 321 321 322 323 324 324 325
340 341 342 340 336 334 335 335 332 331 331 332 331 329 328 327 326 324 323 323 323 323 325 327 330 333 332 332 331 330 329 329 329 328 328 328 327 327 327 326 324 324 324 324 324 322 321 321 321 321 321 322 322 322 319 318 317 319 321 323 323 322 321 321 321 322 323 322 322 321 320 319 318 318 318 318 318 319 320 321 322 322 323 324 325
340 342 342 340 337 336 335 332 331 332 334 335 336 335 334 333 332 329 327 326 326 325 325 326 328 328 327 328 331 331 330 329 328 328 328 328 328 327 326 325 324 324 325 325 324 322 321 320 320 320 321 321 322 321 319 318 319 321 323 324 323 322 321 320 321 322 323 322 322 322 321 319 318 317 317 317 317 318 319 320 321 322 322 323 324
343 343 342 340 337 336 333 332 335 336 337 337 338 338 338 337 335 334 332 332 331 331 330 330 330 327 325 325 329 331 330 329 328 328 328 328 328 327 326 325 324 324 324 324 323 321 319 318 318 320 320 321 321 320 319 319 321 323 324 324 323 322 321 321 321 322 322 322 322 322 320 319 317 316 317 317 317 317 319 320 320 321 322 323 324
345 344 341 338 336 336 336 336 338 338 338 339 339 340 340 340 339 337 335 334 334 334 334 333 332 330 327 326 327 329 329 328 328 328 328 328 328 328 326 325 324 324 324 323 322 320 317 317 317 319 320 321 321 320 320 321 323 324 324 323 323 322 321 321 322 322 321 321 321 321 320 317 317 317 317 318 317 317 318 319 320 321 323 324 325
345 342 338 337 336 337 338 338 339 340 340 340 341 341 341 340 340 337 335 334 334 334 334 334 333 332 331 328 325 327 328 327 326 328 328 329 329 328 326 325 324 324 323 323 321 319 317 316 317 318 320 321 321 320 322 323 324 324 324 323 322 321 321 322 321 321 320 321 321 320 319 317 317 316 317 318 318 317 318 319 320 321 323 326 328
341 338 337 338 340 340 341 342 342 342 342 342 342 341 340 340 338 336 335 334 334 334 334 334 333 333 332 329 326 327 328 327 327 328 329 329 329 327 326 325 324 324 323 323 321 319 317 316 317 319 320 321 321 322 323 324 324 323 323 322 321 321 321 321 321 320 321 321 321 320 318 317 317 317 317 318 317 317 318 319 320 321 325 328 329
339 341 340 341 340 338 339 340 340 341 342 343 342 341 340 339 337 335 334 334 334 335 334 334 333 333 333 331 328 326 326 327 328 329 330 330 329 327 326 325 325 324 323 322 320 318 316 316 318 319 320 321 322 323 324 324 323 323 322 321 321 321 321 320 320 320 321 321 321 320 318 317 317 317 316 316 316 316 317 319 320 322 328 331 331
338 336 333 332 331 331 331 333 335 337 339 340 341 340 339 338 334 332 331 332 333 334 333 333 332 332 331 329 326 325 326 328 329 330 330 329 328 327 326 325 325 324 323 322 320 317 316 317 318 320 321 322 322 323 323 323 322 322 321 320 320 320 320 319 320 320 321 322 321 320 318 317 317 317 317 316 316 316 317 318 319 321 327 333 334
329 327 325 326 327 329 330 330 330 331 331 332 334 335 335 333 331 329 329 329 331 332 332 331 331 330 330 329 327 328 329 329 329 329 329 328 327 327 326 325 325 325 323 321 319 316 316 317 319 320 322 322 322 322 323 322 321 321 320 319 319 319 319 319 320 320 321 321 321 320 320 318 317 318 317 316 316 317 317 318 319 320 323 330 334
324 325 326 328 328 329 329 327 325 323 324 325 327 329 330 330 330 329 329 328 329 331 331 330 329 330 330 330 329 330 329 328 328 328 328 327 327 326 325 325 325 324 323 320 317 315 316 318 320 321 322 322 322 322 322 321 320 320 319 319 319 319 318 318 319 320 320 321 321 321 320 319 318 318 317 316 316 318 317 317 319 320 320 323 328
323 325 327 329 330 328 325 322 321 320 321 323 326 327 329 329 329 329 328 328 328 329 329 329 329 329 329 329 329 329 328 328 328 328 327 327 327 325 325 325 325 324 322 317 314 315 318 319 321 322 322 322 322 322 321 320 319 319 318 318 318 318 318 318 318 318 319 319 320 321 321 321 320 319 317 316 316 318 318 317 318 320 320 320 322
323 324 326 328 326 322 319 319 320 320 320 323 326 328 329 328 327 327 327 328 328 327 327 327 327 327 328 328 328 328 327 328 328 327 328 327 326 325 325 325 324 322 318 315 315 318 321 321 321 322 322 321 321 321 320 319 319 318 317 318 317 317 317 317 317 318 318 319 320 321 321 321 321 320 318 316 315 317 319 317 316 319 320 319 319
322 324 324 322 320 318 319 320 321 321 322 325 327 328 328 327 326 327 328 328 328 328 327 326 326 326 326 326 327 327 327 327 326 326 326 326 324 324 324 324 323 319 315 316 318 319 320 321 321 321 321 321 320 320 319 318 318 317 317 317 316 316 316 316 316 317 317 318 319 320 320 320 321 320 318 316 315 316 317 317 316 317 319 319 318
321 321 320 318 318 319 320 321 322 323 324 326 327 327 326 326 327 328 328 328 328 326 326 325 325 326 325 325 326 326 326 325 323 323 323 323 322 322 322 322 321 317 315 317 318 317 317 319 321 320 319 319 319 318 318 317 317 317 316 316 315 315 315 315 315 315 316 317 318 318 319 319 320 321 318 316 315 316 316 316 317 317 317 318 318
319 319 318 317 318 319 320 322 322 322 323 324 325 325 325 326 327 327 327 327 326 324 324 324 325 325 325 324 325 324 324 323 322 322 322 321 321 321 321 320 318 316 315 317 318 317 318 319 319 318 318 318 317 317 317 316 315 315 315 314 314 313 313 313 313 313 314 315 315 316 318 318 319 320 319 317 317 317 316 315 317 317 316 317 318
319 319 319 318 318 319 320 321 321 321 323 324 325 326 326 326 327 327 326 326 324 324 324 324 325 325 324 324 324 323 323 322 322 322 321 321 321 320 319 317 316 316 316 318 319 318 318 318 317 317 316 315 315 315 315 315 314 314 313 312 312 311 311 311 311 310 311 311 312 314 315 316 317 319 319 319 318 318 316 316 316 317 316 316 317
321 320 320 320 320 321 322 322 321 322 324 325 326 327 327 327 328 327 326 326 325 325 325 325 325 324 323 323 323 322 322 321 320 319 319 318 317 316 315 316 317 317 318 318 318 318 317 317 316 315 314 314 314 314 313 313 313 312 312 311 310 310 309 309 309 308 308 308 309 310 312 314 316 317 318 319 319 319 318 317 317 318 317 316 317
322 322 322 322 322 323 323 324 324 325 326 327 328 328 327 327 327 327 327 326 325 324 324 324 323 323 322 321 321 320 319 318 316 315 314 314 313 313 314 316 318 318 318 318 318 317 316 315 314 314 313 313 313 313 312 312 311 311 311 310 309 308 308 307 307 307 307 306 306 307 309 311 314 315 316 317 319 319 319 319 319 320 320 318 317
323 323 322 322 322 323 324 325 327 328 328 327 327 326 326 325 326 326 325 324 324 324 323 323 322 322 321 321 320 318 316 315 314 313 313 313 313 314 315 317 318 318 318 318 317 315 314 313 312 312 312 312 312 312 311 310 310 310 309 308 308 307 307 307 306 306 306 305 305 305 306 308 311 312 314 315 316 318 319 319 320 321 322 320 318
324 323 323 323 325 326 327 327 328 327 326 325 324 324 323 324 324 324 323 323 324 323 323 322 322 322 321 320 318 316 314 313 313 314 314 314 313 314 315 316 316 316 316 315 314 313 312 311 310 310 310 311 311 310 310 309 309 308 307 307 307 307 306 305 304 304 304 304 304 304 304 305 307 309 311 312 313 315 317 318 319 320 322 322 320
323 322 322 324 325 326 326 327 326 325 325 324 323 322 322 322 322 322 322 323 323 323 322 323 323 322 321 320 317 315 314 314 314 314 314 314 314 313 314 314 313 313 312 310 309 309 309 309 309 309 309 310 309 308 308 308 307 307 307 307 306 305 304 303 302 301 302 302 303 303 303 303 304 305 307 309 310 311 313 316 318 320 321 322 322
323 323 323 325 325 325 325 326 326 325 324 323 322 322 322 322 322 322 322 323 322 321 321 322 322 322 321 319 316 315 314 313 313 314 314 314 314 313 313 312 311 310 309 308 307 308 308 308 308 308 308 308 307 306 306 306 306 306 306 305 304 302 301 300 299 299 300 300 301 301 301 301 301 302 303 305 306 307 310 313 316 318 320 321 322
324 325 325 326 327 326 326 326 325 324 323 322 322 322 322 322 323 322 322 322 321 320 320 321 321 321 320 317 315 313 312 311 311 313 314 314 313 312 311 310 309 308 308 307 307 307 307 307 308 308 308 307 306 306 306 306 306 305 303 301 300 298 297 297 297 297 298 299 299 300 299 299 299 300 301 302 302 304 306 310 313 316 319 320 321
325 326 326 326 326 325 325 324 323 323 322 322 322 322 322 322 322 322 321 321 320 318 318 319 319 319 317 315 313 312 311 311 311 311 312 312 311 310 310 309 308 307 307 307 307 307 307 307 307 308 308 307 306 305 305 305 304 302 299 297 296 295 295 295 295 296 296 297 298 298 298 297 297 298 300 300 300 301 303 307 310 313 316 319 320
325 325 325 325 324 324 323 323 322 322 322 321 321 321 322 321 321 321 321 320 319 318 317 317 317 316 314 313 312 311 310 310 311 311 311 310 310 309 308 307 307 306 306 307 307 306 306 306 306 306 306 306 305 304 303 302 300 297 295 294 294 294 294 294 294 294 295 296 296 296 296 295 296 297 299 299 298 299 301 304 308 312 314 316 318
323 323 323 324 324 323 323 322 321 321 321 320 320 321 320 320 319 319 319 319 318 317 317 316 316 315 313 312 311 310 310 309 309 309 309 309 308 308 307 306 305 305 305 306 306 306 305 305 305 305 305 304 303 301 299 297 295 294 293 293 293 293 294 294 294 294 295 295 295 295 295 295 295 297 298 298 297 297 299 303 307 310 313 314 316
322 322 322 322 321 321 320 320 319 319 319 318 319 319 319 318 318 318 318 318 318 317 316 315 313 312 312 311 311 310 309 308 308 307 308 308 307 306 306 305 304 304 305 305 305 305 305 305 304 303 302 301 299 297 295 293 293 293 293 293 294 294 294 294 294 294 295 295 295 295 295 295 295 296 297 298 297 297 298 302 306 309 311 312 314
321 321 321 320 320 319 318 318 318 318 317 316 316 316 316 317 317 317 317 317 316 315 314 313 312 312 312 311 310 309 308 307 306 305 306 306 306 305 304 303 304 304 304 304 304 304 303 303 302 300 299 298 296 294 293 293 293 293 293 294 294 294 294 294 294 294 294 295 295 295 295 295 295 295 296 297 297 297 297 300 304 306 308 310 312
320 320 320 320 319 318 317 317 317 317 316 315 314 314 314 314 314 314 314 314 313 312 312 311 311 311 311 310 310 309 308 307 305 304 304 304 304 304 304 303 303 303 303 303 303 302 300 299 298 297 296 295 294 293 293 293 293 293 293 293 293 293 293 294 294 294 294 295 295 295 295 295 295 294 295 295 296 296 297 297 300 302 305 307 309
319 319 319 319 317 316 316 315 315 315 315 314 314 312 312 313 313 312 312 313 313 312 312 311 311 311 310 310 310 308 307 307 306 305 304 303 303 303 303 303 303 303 303 303 302 301 298 296 295 295 294 293 293 293 293 293 293 293 293 293 292 293 293 293 293 294 294 294 294 294 294 295 295 295 295 295 295 296 296 296 297 298 301 303 305
318 318 318 317 316 316 315 314 314 314 314 315 315 314 313 312 312 311 311 312 312 312 312 311 310 309 309 309 309 308 307 306 306 305 305 304 303 303 302 302 303 303 303 303 303 301 298 295 294 293 293 293 293 293 293 293 293 293 293 293 293 292 293 293 293 293 294 294 294 294 294 295 295 295 295 294 295 295 296 296 296 297 299 301 302
317 316 315 315 316 316 315 315 314 315 314 314 315 315 314 313 313 312 311 311 311 312 312 311 309 308 308 309 309 308 308 307 306 306 306 305 304 303 303 302 303 303 302 302 302 301 297 294 293 293 293 294 294 294 294 294 294 293 293 293 293 292 292 292 293 293 293 293 294 294 294 294 294 294 295 295 294 294 294 295 296 296 298 299 301
315 313 312 313 314 314 314 313 313 314 314 314 314 314 313 312 312 312 312 312 312 312 311 310 309 308 308 308 309 308 308 307 306 306 306 305 305 304 304 304 303 303 301 300 299 298 296 294 294 295 294 294 295 294 294 294 294 294 294 293 292 292 292 292 292 292 292 293 293 293 294 294 294 294 294 295 294 294 294 294 295 296 297 299 300
Wind_Speed
27 24 21 20 18 15 13 10 9 8 7 7 7 6 6 7 7 7 6 4 4 4 4 3 3 5 5 5 5 7 9 8 9 10 11 11 11 12 11 10 11 11 11 11 12 13 13 13 13 12 12 13 15 15 14 13 12 12 12 13 14 16 20 24 27 31 30 29 32 35 35 36 37 36 36 35 32 30 29 29 30 30 31 34 34
29 25 22 21 18 15 13 11 9 9 8 8 7 7 7 7 8 8 6 5 5 6 6 5 6 8 7 6 7 8 10 10 10 10 11 12 12 12 12 12 12 12 11 11 12 13 14 14 14 13 12 13 15 16 17 16 16 16 15 15 18 19 21 25 28 31 33 32 34 36 37 37 38 37 36 35 34 32 30 28 29 30 30 32 35
30 26 23 22 19 16 14 11 10 9 8 8 7 6 7 8 9 9 6 6 7 7 8 8 9 9 8 8 8 8 10 12 12 11 11 13 13 12 13 13 12 12 12 12 12 13 14 14 15 14 14 15 16 16 17 18 18 19 19 19 20 21 22 24 27 30 33 34 34 37 38 39 39 38 36 34 33 32 31 28 27 28 28 29 33
32 28 25 23 20 18 15 12 11 10 9 8 7 7 9 10 9 8 7 8 9 10 10 11 11 11 11 10 10 11 12 12 13 13 13 14 15 13 12 12 11 12 12 12 12 13 13 14 14 14 14 15 16 15 16 18 20 22 22 21 22 23 23 23 25 28 32 34 34 36 38 39 40 39 37 33 30 29 29 27 26 27 27 26 30
34 30 26 24 22 19 16 13 11 10 10 9 7 6 9 9 8 7 8 10 11 12 12 12 12 13 14 14 14 15 15 14 14 14 14 16 16 12 11 12 12 12 11 12 13 13 14 15 14 13 13 14 15 15 16 19 22 23 24 22 22 23 23 23 24 26 29 32 34 34 36 38 40 40 37 33 31 30 28 27 26 26 27 26 27
35 32 28 26 24 20 18 14 10 10 11 9 6 6 7 7 7 8 10 11 13 14 14 14 14 15 15 16 16 17 16 15 16 17 17 17 15 12 11 12 12 11 11 11 13 14 14 15 15 14 13 14 14 14 16 18 20 21 22 23 23 23 24 24 24 26 28 30 31 33 35 38 40 40 36 33 32 31 29 28 27 26 26 27 27
36 33 30 28 25 21 18 13 9 10 10 7 6 6 6 6 7 8 11 14 16 17 16 15 16 17 17 17 17 17 17 18 19 19 17 15 13 11 11 11 11 11 11 12 13 14 14 15 15 14 13 13 13 14 17 18 19 20 20 22 22 23 24 25 25 26 27 28 29 31 34 38 40 39 36 33 32 31 29 30 30 28 26 26 27
37 34 32 30 26 21 17 11 9 10 9 8 8 7 6 6 7 9 13 16 17 17 16 15 16 17 17 17 16 16 16 16 16 16 15 13 12 12 12 11 10 10 12 13 14 15 15 15 15 14 13 13 14 16 18 20 20 20 20 21 21 22 24 25 25 25 24 26 28 29 32 37 39 38 36 34 34 32 30 29 31 31 29 29 28
36 34 32 30 26 21 16 12 11 12 11 10 10 8 7 8 8 11 13 15 15 15 15 15 15 16 15 15 14 13 12 12 12 12 12 11 11 12 11 10 10 11 12 14 15 15 15 15 14 14 13 14 15 17 18 19 20 20 20 20 20 22 23 24 24 23 23 24 26 28 30 35 38 37 36 35 35 35 34 32 31 31 31 32 31
34 33 32 30 24 20 17 13 13 15 14 11 11 10 10 11 12 13 14 14 15 15 15 15 15 14 14 13 12 11 10 10 10 9 8 8 9 9 9 10 11 12 13 14 15 14 15 15 14 13 13 13 15 16 17 17 18 19 19 19 19 21 22 23 22 21 21 23 25 26 29 33 35 35 34 34 34 35 35 34 33 32 31 33 34
32 32 32 29 24 21 17 14 15 17 15 12 12 12 12 14 15 15 15 16 16 15 15 14 14 13 13 13 12 10 10 10 10 9 8 8 10 10 11 12 13 14 14 15 15 15 15 15 14 13 12 13 15 16 16 17 17 17 18 18 18 19 20 21 21 20 20 22 24 24 27 31 34 34 34 35 35 34 34 33 34 34 33 32 33
32 32 30 28 25 22 18 15 16 17 15 14 15 15 15 17 18 17 17 17 16 15 15 14 14 13 13 13 12 11 11 11 10 10 10 11 12 13 13 14 15 16 16 16 16 16 15 15 15 13 12 13 15 16 16 16 16 16 17 17 17 18 19 20 21 19 19 21 23 24 26 29 33 36 37 38 37 36 35 33 32 34 34 34 34
34 32 30 29 27 21 15 14 15 17 16 16 17 17 18 20 20 19 18 17 17 17 16 15 15 15 14 13 13 13 13 12 11 11 12 12 13 15 16 17 17 17 17 17 18 17 16 16 16 14 13 13 14 15 15 16 16 16 16 17 18 18 18 19 19 18 18 21 23 24 25 28 32 35 37 37 36 34 34 33 32 33 35 35 36
36 33 31 31 28 21 15 14 15 17 19 19 20 21 21 22 22 21 20 19 19 19 18 17 16 16 15 14 15 15 14 13 13 13 13 14 15 17 18 18 18 18 18 18 18 18 17 16 17 15 14 14 14 15 16 17 17 17 18 18 18 18 18 19 18 17 19 21 23 24 25 27 30 34 36 35 33 33 33 33 32 33 35 36 37
37 36 34 33 30 24 20 16 15 17 21 22 23 24 24 24 23 23 22 21 21 20 19 18 18 17 16 15 16 16 14 13 14 14 14 15 16 18 18 18 17 17 18 18 18 18 17 17 17 17 15 15 15 16 17 18 18 19 19 20 19 19 19 18 17 18 19 21 22 24 26 26 29 33 36 35 33 32 32 32 32 33 34 34 37
38 37 35 34 31 27 24 20 18 20 23 24 25 26 26 26 25 24 24 23 22 21 20 20 19 18 16 16 16 17 15 14 15 15 15 16 17 18 17 17 16 17 17 17 18 18 18 18 17 17 17 16 15 17 18 19 19 20 21 21 20 20 19 18 18 19 20 21 22 24 26 26 28 33 35 35 34 32 32 33 32 32 32 33 35
38 37 34 33 32 29 26 24 21 21 24 25 26 27 27 27 26 25 25 24 23 23 23 22 21 20 18 17 17 17 16 16 17 17 17 18 18 17 17 16 16 16 17 17 18 18 17 17 17 17 17 16 16 17 19 19 20 21 22 21 21 21 21 20 21 22 21 22 23 24 26 27 29 34 35 34 33 31 32 34 33 31 31 32 35
39 36 32 32 34 32 29 27 24 22 24 25 25 27 28 28 27 26 26 26 25 24 24 24 25 25 23 19 18 18 17 17 19 19 18 19 18 18 18 17 16 16 17 16 17 17 16 15 16 17 17 17 16 18 19 19 20 21 22 22 22 22 22 23 24 23 22 22 23 25 27 28 31 34 34 33 32 30 31 33 32 31 32 32 34
39 33 29 31 34 33 29 26 22 20 22 23 24 27 29 29 28 27 27 28 27 27 26 27 28 29 27 23 21 20 20 19 19 20 20 20 19 19 19 18 17 17 17 16 16 16 16 17 17 17 17 17 17 18 18 18 20 21 22 22 22 22 22 23 24 24 23 23 24 27 29 29 31 33 33 34 35 33 31 32 31 32 33 32 33
36 31 29 30 33 31 26 20 18 19 22 23 25 28 29 29 30 29 28 28 28 29 29 30 29 29 27 25 24 25 25 24 22 22 22 21 21 20 19 18 17 17 17 17 17 18 18 19 18 17 18 17 17 17 18 18 19 20 21 22 21 22 22 23 23 23 24 24 26 28 29 28 30 34 35 37 39 37 35 33 32 32 32 32 33
31 27 26 28 29 25 20 17 19 22 25 26 27 29 30 31 32 30 27 28 30 30 31 31 30 28 27 26 27 28 26 23 22 23 24 22 21 21 20 18 16 17 17 17 18 19 20 20 18 16 17 17 16 17 18 18 19 20 20 20 20 22 23 23 22 21 21 23 24 26 26 25 29 35 37 38 39 39 38 36 34 33 32 32 33
24 22 23 23 22 19 18 19 23 25 27 27 29 30 30 32 33 30 26 26 29 31 32 32 31 30 28 27 29 29 25 20 19 21 23 22 22 22 21 18 17 16 16 16 18 20 21 20 17 15 15 15 16 17 17 17 18 19 19 19 20 21 22 22 21 20 20 21 21 21 22 24 29 33 37 39 41 42 41 40 37 34 30 31 33
19 19 19 18 17 18 19 21 23 25 26 27 28 29 29 31 32 28 24 24 27 29 30 30 30 31 29 27 28 28 26 22 21 22 24 24 23 22 21 18 17 16 16 17 19 20 20 19 17 14 14 14 16 17 16 16 17 18 18 19 20 20 20 19 18 18 19 19 18 19 20 23 28 32 35 40 43 44 44 43 42 36 28 28 33
19 18 17 16 16 18 19 20 21 22 23 25 26 27 27 27 25 22 21 21 23 25 27 27 28 30 29 27 27 26 25 22 20 21 24 25 24 22 20 18 17 16 16 18 20 20 20 19 16 14 13 13 15 15 14 15 17 18 19 19 19 18 17 16 17 17 18 18 18 20 21 22 26 30 34 39 43 46 46 46 45 36 22 24 30
19 16 14 14 15 16 16 16 17 17 18 19 20 21 21 19 17 16 17 18 20 23 25 26 27 28 28 27 25 23 22 20 18 19 23 25 24 22 20 18 17 16 17 19 20 20 19 18 16 14 13 13 13 13 14 15 17 18 19 18 17 16 15 15 16 17 17 17 18 20 20 21 24 28 33 37 41 46 48 48 47 37 17 17 23
15 13 13 13 13 13 13 13 12 13 13 14 15 15 15 13 13 13 14 15 17 20 22 23 24 24 24 24 22 21 21 20 18 20 23 24 23 21 18 17 17 17 17 19 20 19 18 17 15 13 13 12 13 13 13 15 17 18 18 16 15 15 15 15 16 17 17 17 18 19 20 21 23 26 31 36 40 45 48 48 48 43 22 7 18
11 10 10 10 10 11 11 11 11 11 11 12 13 13 13 13 13 12 13 14 16 17 18 19 20 20 21 22 22 22 22 20 19 20 22 22 21 19 17 17 17 17 18 20 19 18 17 16 14 13 13 13 13 13 14 15 16 17 16 14 14 14 14 15 16 17 17 17 17 18 19 20 22 25 29 34 37 42 46 46 46 47 35 9 10
6 7 8 10 11 10 10 10 9 9 9 10 11 12 13 13 13 13 13 15 15 15 16 17 18 19 20 21 20 20 20 20 19 18 19 20 20 18 17 17 17 17 19 20 18 16 15 14 14 13 13 14 14 14 14 15 16 15 14 13 13 13 14 14 15 16 17 18 17 18 19 20 21 23 27 32 35 37 42 45 43 44 42 31 13
5 9 11 11 11 9 9 9 9 9 10 10 11 12 13 14 14 13 14 15 16 15 16 16 17 17 18 18 18 18 18 18 17 17 18 19 20 20 19 18 18 19 20 19 16 15 14 14 14 14 14 14 13 14 15 15 13 12 12 12 13 14 15 15 15 15 17 19 19 18 19 20 20 21 24 29 32 33 37 42 43 41 41 41 34
7 11 12 11 11 10 10 10 10 10 11 12 13 13 14 14 14 13 14 15 15 15 16 16 16 16 16 16 16 17 17 16 16 18 20 20 21 20 18 18 19 19 19 17 15 13 14 14 15 14 14 14 13 15 16 14 12 11 12 14 15 16 16 16 15 15 16 18 19 18 18 19 19 19 21 25 29 31 32 36 41 42 41 42 42
11 12 12 12 12 11 11 11 11 11 12 13 14 14 13 13 13 13 13 13 14 14 16 17 16 15 15 15 14 14 14 14 15 17 18 18 18 17 17 19 19 18 17 15 13 11 13 15 15 14 13 14 14 15 14 13 12 13 14 16 16 16 16 15 14 14 16 18 18 18 18 18 18 17 18 20 24 28 30 33 37 42 42 41 43
14 15 14 13 12 11 11 12 12 13 13 14 13 13 12 11 10 11 11 12 13 13 14 15 15 15 15 14 14 13 12 12 12 13 14 15 16 17 18 19 18 17 16 14 12 12 15 16 14 13 13 13 13 13 12 12 13 15 15 15 15 14 14 13 13 14 16 17 18 17 17 17 17 16 16 17 21 25 28 31 35 40 42 42 42
16 15 13 11 11 11 13 13 13 14 14 13 12 12 10 9 9 9 10 11 12 12 14 15 15 15 14 12 12 11 12 12 12 14 15 16 17 17 17 17 17 16 15 15 15 16 16 14 13 12 12 11 12 12 12 13 13 14 14 13 13 12 12 13 13 14 16 16 17 17 16 17 17 15 15 16 19 21 25 28 32 35 39 41 42
13 11 10 11 12 13 14 14 14 14 13 12 11 10 9 9 9 10 10 11 11 12 14 15 15 13 11 9 9 10 11 11 12 14 15 15 14 14 14 14 15 15 14 15 15 15 14 13 13 12 11 11 12 12 12 13 13 12 11 11 11 11 11 12 13 14 16 16 17 17 17 16 17 16 16 16 17 19 21 24 28 31 35 38 40
10 9 11 12 14 16 15 14 14 14 13 12 11 10 10 11 11 11 11 11 11 12 14 15 13 11 8 8 8 9 9 10 10 11 10 10 10 11 12 14 15 15 14 14 15 15 14 14 13 13 13 12 11 11 12 12 12 11 10 10 10 11 11 13 14 15 16 17 17 17 17 17 17 17 17 17 17 18 19 21 23 26 29 32 35
10 11 13 14 15 15 14 14 14 14 13 12 12 11 11 12 12 13 13 12 12 13 15 14 11 8 7 7 7 7 6 6 6 6 6 7 7 8 10 14 17 18 16 15 15 15 15 14 14 13 13 12 11 11 12 12 11 11 10 9 10 12 13 14 15 16 17 18 18 17 17 17 17 18 18 18 18 18 19 19 19 21 22 25 29
11 12 12 13 14 14 14 15 15 14 14 13 13 12 12 12 13 13 13 12 13 13 14 13 10 8 7 7 5 5 4 5 5 5 5 7 7 7 8 11 15 18 17 15 15 15 15 14 13 13 12 11 11 12 12 11 10 9 10 10 11 13 15 16 16 17 17 18 18 17 17 17 17 17 18 19 19 19 19 18 18 19 19 20 24
11 11 12 14 15 15 15 16 15 14 13 12 12 11 11 11 11 11 11 12 12 12 12 11 9 8 7 6 5 6 6 5 6 7 7 8 8 9 10 11 13 14 15 14 15 15 14 13 12 12 12 11 11 11 10 9 8 9 10 12 13 15 16 16 16 16 16 16 17 17 17 16 15 16 17 18 18 19 18 18 18 18 18 18 21
13 13 13 14 14 15 15 14 13 12 11 11 11 11 11 10 9 9 9 10 10 11 11 11 10 9 7 6 7 8 8 7 8 10 11 11 10 10 11 12 12 13 14 14 15 14 13 12 11 11 11 10 9 8 7 8 9 10 12 13 15 15 16 16 15 14 14 14 15 15 15 15 14 14 15 16 17 18 18 18 17 17 17 18 18
14 13 12 12 12 12 13 12 12 11 11 11 11 11 10 9 7 7 8 9 9 10 10 11 11 11 9 8 8 8 8 9 10 12 13 13 12 12 11 11 12 12 12 12 13 13 13 13 12 11 9 9 8 7 7 8 9 11 13 14 15 15 14 13 12 12 11 12 12 13 13 14 14 13 13 14 15 16 16 16 16 16 15 15 16
13 11 11 11 11 12 13 13 12 12 11 10 10 9 8 7 6 7 8 9 9 8 8 9 11 11 10 8 7 7 7 8 9 11 14 14 13 12 11 10 10 10 10 10 11 11 12 12 12 11 10 9 8 8 9 9 11 12 13 13 12 12 11 10 9 9 10 10 11 11 11 12 12 13 13 13 13 14 13 14 15 15 14 14 14
12 11 12 12 12 12 12 12 11 10 9 9 8 7 6 6 7 7 8 9 7 5 4 7 9 9 8 7 7 6 6 6 7 10 13 14 13 12 11 10 10 10 9 10 11 10 10 10 10 9 9 9 9 9 10 11 11 10 10 9 8 8 9 8 8 9 9 10 10 10 10 10 11 12 12 12 13 13 13 12 13 14 14 14 13
12 12 13 14 13 11 10 9 9 8 8 8 7 6 6 8 8 8 8 9 8 5 4 5 6 7 6 6 6 6 6 7 9 11 12 13 13 12 10 10 10 10 11 12 11 10 9 8 8 7 7 8 9 9 10 9 8 7 6 5 6 6 7 7 7 8 9 9 10 10 9 9 11 12 12 12 13 13 13 12 12 13 14 14 13
12 11 11 10 10 9 8 8 8 6 5 6 6 6 7 8 9 9 10 10 10 7 5 5 5 6 7 6 6 5 5 6 8 10 12 13 12 11 10 9 9 10 11 11 11 10 9 8 7 8 9 9 8 8 7 5 4 3 3 4 5 5 6 7 7 8 9 10 11 10 9 9 11 12 12 13 14 13 13 13 13 13 13 13 13
10 8 7 6 5 4 4 4 4 3 3 3 4 5 6 8 8 9 9 9 9 8 7 6 6 7 7 6 5 4 4 4 6 9 11 12 11 10 9 9 8 8 9 9 9 9 9 9 9 10 9 7 6 5 4 2 1 1 2 3 4 4 5 6 8 9 10 10 11 11 11 10 11 12 12 13 14 14 13 13 13 13 13 13 13
8 7 5 4 3 2 1 2 3 3 2 2 3 4 5 6 7 8 9 9 9 8 8 8 7 7 8 7 5 3 3 4 6 8 10 10 9 7 5 5 5 6 6 5 5 6 8 9 9 8 6 4 3 2 2 1 1 1 1 2 3 4 4 5 7 8 9 10 11 11 11 11 11 11 11 12 14 13 12 12 12 12 13 13 13
5 4 4 3 2 2 2 3 4 4 3 3 4 4 4 5 6 8 9 9 8 7 6 7 7 9 9 7 5 3 2 3 4 3 4 5 7 8 6 5 4 4 3 2 4 6 8 8 7 5 3 2 2 2 1 2 2 2 2 2 3 4 4 5 6 7 9 10 11 11 11 11 11 11 11 11 13 13 12 11 12 12 12 12 11
5 5 5 4 3 3 3 3 4 5 5 5 6 6 6 6 7 8 8 9 8 8 7 7 8 10 11 9 6 4 3 2 3 3 1 3 8 10 8 6 6 5 5 5 7 9 8 7 5 3 1 2 2 2 2 3 3 3 4 4 4 5 5 5 5 7 8 9 10 10 10 10 11 11 12 11 12 13 12 11 11 12 12 12 11
7 7 6 5 6 6 6 5 5 5 6 8 10 10 9 9 9 8 9 10 11 11 11 10 10 11 11 10 8 6 4 4 4 5 5 4 4 6 5 5 5 6 7 9 10 11 10 7 5 2 1 2 3 3 2 3 4 4 5 5 5 5 5 5 5 6 7 8 9 9 9 9 10 11 12 12 11 11 11 10 10 10 10 11 11
6 6 6 6 7 9 10 10 10 10 9 11 12 13 13 12 12 11 11 11 12 13 13 13 11 10 11 11 11 9 8 8 7 6 7 9 6 4 5 5 6 7 9 11 12 12 11 8 5 3 2 2 3 3 3 4 4 4 5 5 6 6 6 6 5 5 5 6 6 7 7 8 8 9 10 11 11 10 9 9 9 9 9 10 10
7 5 3 4 6 8 8 8 9 10 11 12 14 14 14 14 14 14 14 14 15 15 15 14 12 10 10 11 12 13 12 11 9 7 8 10 9 7 7 8 8 10 12 12 12 12 11 9 6 4 2 2 3 4 4 4 5 5 5 5 5 6 6 7 6 6 6 5 5 5 6 6 7 8 8 9 9 9 8 8 8 8 8 8 8
Wind_Direction
209 208 209 211 209 205 204 206 213 219 220 221 220 216 222 235 232 215 205 210 225 246 271 277 275 289 301 309 317 319 318 315 316 322 325 313 290 278 279 279 278 284 289 288 285 284 286 286 282 280 276 275 277 278 277 279 286 298 304 312 323 326 326 325 319 320 328 335 337 339 339 335 331 330 326 317 313 309 296 275 261 258 258 257 254
210 208 208 211 210 205 202 203 212 220 221 221 216 214 225 231 222 215 215 229 245 263 275 270 266 275 284 288 294 302 302 299 298 305 315 317 302 282 278 281 281 285 288 288 288 285 283 283 281 280 278 278 279 277 277 279 283 290 295 301 311 318 319 318 316 316 321 330 336 337 337 334 330 329 328 321 316 313 304 284 263 257 257 256 255
210 208 208 210 209 203 197 200 210 216 218 217 211 216 229 223 214 217 224 236 248 259 263 263 265 268 271 274 279 289 293 290 289 293 302 312 308 286 275 277 277 278 285 289 291 286 282 282 282 281 279 278 279 279 279 281 283 287 291 296 306 315 317 314 312 313 316 324 332 335 335 334 330 328 326 321 316 314 309 294 270 259 258 257 255
210 209 209 209 207 201 196 199 206 210 214 208 199 212 227 222 217 225 240 249 251 253 255 262 267 270 274 276 277 281 283 279 278 282 291 303 305 287 270 271 273 275 284 290 294 293 288 287 286 283 278 274 275 277 280 282 285 287 289 292 300 309 313 312 310 311 314 320 328 333 335 334 332 329 325 321 317 315 311 301 281 266 261 259 256
212 209 209 208 204 199 196 200 204 209 213 202 191 210 225 226 231 245 257 260 257 256 259 263 264 267 273 276 276 277 276 274 272 276 287 297 298 285 269 269 273 279 288 294 297 299 297 295 292 284 277 273 273 275 280 285 288 289 288 287 293 303 308 309 309 309 311 317 325 331 335 335 332 330 327 324 321 318 314 305 291 277 269 264 259
213 211 210 206 201 199 199 201 206 211 209 196 190 211 224 234 248 257 258 255 255 260 262 261 261 264 269 271 273 276 277 276 275 279 285 289 288 280 270 270 275 283 293 299 301 302 301 299 294 286 279 276 277 280 284 288 289 288 287 286 290 298 303 305 308 308 310 316 323 329 335 336 333 330 328 326 323 321 318 310 298 286 277 271 265
215 212 211 205 200 202 201 202 212 210 199 189 195 211 222 238 253 256 253 252 258 264 265 262 264 268 270 271 273 275 276 275 275 277 277 277 279 277 273 274 279 286 295 302 306 305 303 301 296 289 282 278 279 283 286 287 287 286 286 287 290 295 299 303 307 308 311 318 323 328 335 336 334 331 328 325 322 321 321 315 304 292 283 278 270
216 213 212 206 202 204 205 209 217 205 193 194 201 207 215 231 249 253 251 254 259 262 262 261 263 266 269 270 269 270 272 272 271 268 266 269 275 276 275 276 281 288 297 305 308 306 304 303 297 289 283 280 282 285 288 288 286 283 283 286 289 293 297 301 305 309 313 317 321 329 335 336 335 333 329 325 321 320 320 317 307 297 289 283 274
219 216 213 208 205 206 207 210 210 198 195 200 201 202 211 223 238 245 248 253 256 255 256 256 258 263 266 267 267 269 275 277 272 265 264 270 275 274 272 274 278 286 295 304 307 305 304 302 296 288 284 284 285 287 287 287 285 283 282 284 287 291 295 300 305 310 313 315 322 331 336 337 338 336 332 327 321 318 319 316 309 300 292 284 276
220 217 214 209 206 207 209 214 212 203 199 199 198 203 213 221 232 238 242 248 250 250 251 251 255 263 267 269 269 274 285 287 279 270 269 273 272 269 268 269 273 280 289 299 303 303 302 300 296 292 289 289 289 288 287 286 285 283 282 281 284 289 293 299 304 308 309 312 322 331 333 336 338 337 334 332 327 322 318 315 310 305 297 287 277
214 214 213 210 206 206 212 217 213 208 205 203 203 208 217 226 233 237 242 245 246 247 249 252 257 263 266 267 269 276 289 289 277 267 268 271 268 267 271 273 273 276 282 291 297 300 299 296 294 293 293 294 293 290 289 288 285 283 282 281 285 290 294 299 302 303 304 308 319 329 332 334 335 334 331 330 329 324 319 313 308 305 300 293 283
210 210 210 207 204 206 214 218 212 210 213 213 212 215 222 231 235 238 241 244 245 247 251 254 257 259 261 265 270 277 286 284 270 259 261 267 267 270 278 282 281 280 280 284 289 294 295 291 287 289 293 295 295 293 291 290 288 286 285 286 290 294 297 298 298 297 299 306 317 327 332 332 331 330 330 326 323 322 318 311 306 303 299 293 285
210 209 207 204 203 207 220 232 225 221 222 222 221 222 227 234 238 240 243 245 246 249 252 254 255 258 260 265 271 277 281 278 264 256 261 267 269 275 283 288 288 285 281 281 284 288 292 288 283 284 289 295 296 294 291 290 289 288 288 291 295 297 299 299 295 291 294 304 313 321 328 328 327 329 330 326 319 317 316 310 304 301 296 291 286
210 210 206 203 204 210 230 248 244 234 229 229 229 229 233 238 241 244 246 248 248 249 252 253 256 259 260 265 271 274 276 273 263 259 266 271 274 280 286 289 290 287 282 279 280 285 289 288 284 283 285 291 296 297 294 293 291 290 292 296 298 298 300 301 298 292 291 297 306 314 321 323 323 326 328 325 318 314 314 310 303 298 292 288 286
211 209 206 203 205 216 235 252 256 243 233 233 237 237 238 241 244 247 249 250 251 252 254 256 258 260 261 265 270 270 270 270 266 267 272 272 276 283 288 291 292 288 282 277 277 284 290 289 286 284 283 286 293 299 299 298 295 293 295 298 298 298 301 307 306 298 291 292 300 311 318 318 320 324 326 324 318 314 312 310 304 298 293 286 282
210 207 205 204 209 223 238 252 262 250 238 238 242 243 245 246 248 250 251 253 254 255 256 258 258 259 260 262 264 265 267 269 269 271 272 271 276 283 288 292 292 289 284 279 278 286 292 291 287 285 284 285 290 296 299 299 298 296 298 300 299 299 305 311 307 298 292 290 294 305 313 314 316 322 325 324 320 317 313 308 305 302 296 287 279
207 204 206 212 218 228 239 254 265 254 240 241 246 250 252 252 252 253 256 259 261 261 264 267 267 265 263 260 261 263 267 270 271 273 271 269 274 281 286 291 294 291 285 280 282 289 293 292 288 287 286 286 288 293 296 298 298 297 299 302 303 304 309 312 307 300 295 289 290 300 307 309 315 323 327 326 323 322 317 310 306 303 295 286 279
204 206 217 227 229 232 243 257 263 253 244 247 253 256 257 257 257 259 261 263 264 265 268 272 273 269 265 263 263 266 269 270 271 271 268 267 272 278 285 293 296 293 285 280 284 292 295 294 292 290 290 287 286 289 294 296 296 297 300 304 305 307 312 315 313 310 303 292 292 300 304 308 317 326 333 332 328 325 320 313 308 303 294 284 278
208 218 236 239 234 238 250 258 258 252 253 256 258 260 262 263 263 263 263 262 262 263 264 265 268 270 270 268 265 266 270 269 268 267 264 265 272 278 284 292 296 292 285 281 285 292 297 298 295 292 289 286 284 288 292 292 292 296 301 304 305 308 314 319 320 319 315 307 304 305 305 310 321 331 338 340 337 332 325 318 311 304 296 284 275
219 234 246 239 236 244 253 254 254 257 259 261 264 265 267 268 266 264 264 264 262 261 260 260 265 272 275 272 266 265 267 266 264 264 262 264 272 279 284 290 294 290 283 281 287 296 301 301 296 289 287 286 286 288 289 289 290 295 300 302 305 310 314 319 323 324 323 318 312 309 307 314 328 336 338 339 340 338 331 325 317 307 297 284 272
230 239 241 236 239 248 253 254 258 260 261 265 268 268 268 269 267 264 265 267 265 263 262 263 266 269 272 270 266 265 266 265 264 263 261 263 273 282 285 287 290 288 282 283 292 300 302 301 297 291 289 289 288 286 286 287 290 295 299 302 306 311 313 316 321 324 324 320 314 309 309 320 335 341 341 340 342 341 337 331 324 313 298 282 270
232 233 233 236 243 249 254 258 260 260 263 267 268 267 270 271 266 264 268 273 271 270 268 264 262 263 266 269 268 266 264 264 263 262 263 268 276 282 283 284 286 286 283 288 299 304 303 302 300 296 292 290 286 283 283 286 289 293 298 302 307 310 312 313 317 320 321 320 316 309 312 327 340 345 346 345 344 345 342 338 331 320 299 275 261
225 227 231 236 243 249 254 259 260 263 267 269 268 269 271 269 265 266 274 277 274 272 269 263 260 263 267 270 271 268 264 263 262 261 266 272 276 278 279 281 284 284 283 293 305 307 305 304 303 298 291 285 282 282 284 286 288 290 295 302 308 311 311 311 312 316 319 320 317 310 314 332 344 348 350 349 347 348 348 344 338 329 302 268 251
222 225 231 238 245 251 254 256 260 265 269 271 271 272 272 271 270 273 278 278 275 272 267 263 265 271 272 271 271 271 269 268 266 262 265 271 274 275 276 279 281 280 283 296 308 309 306 305 303 296 286 281 280 282 282 281 282 287 296 304 310 311 309 309 309 314 319 320 316 311 318 335 345 348 352 353 349 351 352 348 346 341 310 264 247
218 217 221 228 235 239 242 246 253 260 266 268 271 272 274 277 279 280 280 279 276 271 268 267 270 275 276 273 274 276 275 272 269 264 265 269 272 273 275 277 279 277 284 300 308 307 304 303 299 292 285 281 277 274 273 274 279 289 299 306 309 310 310 311 311 315 320 321 316 313 319 334 342 346 352 354 350 351 355 354 353 354 333 259 244
202 199 202 210 217 221 227 235 242 250 257 261 264 269 275 278 279 281 284 283 277 271 269 270 271 273 274 275 277 280 278 274 269 264 264 267 270 271 274 278 277 277 289 303 306 303 300 299 294 288 280 272 266 263 266 273 283 293 300 305 309 311 314 317 317 319 323 321 316 313 317 328 339 345 352 355 353 353 357 359 358 2 3 258 232
192 195 198 206 213 217 225 232 236 242 251 255 259 265 269 272 274 278 281 282 279 275 274 274 274 274 274 276 279 280 279 278 275 268 264 266 268 268 273 276 274 278 292 301 299 296 293 289 285 278 267 259 257 258 266 278 289 296 299 303 308 313 318 324 323 322 324 321 316 314 315 322 335 344 351 359 0 358 0 4 3 5 13 22 216
216 225 220 221 224 224 230 236 238 247 258 263 266 268 270 273 279 281 279 276 275 274 274 276 277 277 276 277 279 279 280 284 284 275 269 267 267 271 276 276 275 282 293 295 291 286 281 274 268 262 256 253 255 261 273 286 294 295 295 301 310 315 319 323 322 321 323 323 321 320 318 320 332 344 353 3 8 4 3 7 8 8 15 27 45
236 229 227 228 230 237 247 250 253 264 274 276 276 277 278 280 282 282 277 273 273 275 277 278 279 280 282 283 283 282 284 289 289 281 273 270 273 280 282 278 277 284 290 290 283 273 263 257 253 250 249 252 259 270 283 291 292 290 294 302 310 315 317 317 317 318 323 326 325 326 324 324 332 343 353 4 12 10 7 9 11 10 15 25 34
259 237 233 233 239 249 255 255 261 272 279 278 276 277 278 280 281 277 273 271 272 276 279 281 283 285 287 288 286 285 287 289 283 274 268 269 274 278 278 275 278 284 287 282 271 259 251 249 247 247 248 255 267 278 286 287 283 286 297 305 311 316 316 313 313 316 322 326 326 327 329 331 335 342 352 3 11 12 11 11 13 15 18 23 29
258 241 237 237 243 249 251 253 262 270 272 271 270 272 275 275 274 270 267 268 272 275 278 281 283 285 285 285 283 284 285 284 276 267 262 262 265 267 269 271 276 282 281 270 257 257 262 256 249 251 258 268 277 281 280 280 283 291 301 308 313 317 317 314 316 320 324 326 327 328 332 336 341 345 352 1 9 13 14 15 16 18 20 24 27
238 231 232 235 240 244 247 254 260 264 266 267 269 272 274 273 268 266 267 271 276 280 283 284 284 282 282 283 282 282 280 276 270 263 259 258 260 262 264 267 271 274 271 260 254 264 268 259 253 263 274 277 278 277 276 281 290 296 303 310 316 320 323 325 329 330 329 329 330 332 335 339 344 349 352 357 5 12 16 18 19 20 22 25 28
225 225 229 234 240 245 250 256 261 264 268 270 272 275 277 275 270 269 270 272 277 282 287 287 285 283 282 281 280 277 273 268 262 258 257 259 260 260 261 262 264 263 259 255 257 260 259 259 265 275 278 276 274 276 281 289 294 298 303 311 319 325 331 335 336 336 336 336 336 339 341 342 344 348 350 353 2 11 17 19 20 21 23 26 28
222 225 231 238 242 246 251 257 263 268 272 275 276 278 278 276 275 273 271 273 279 284 286 285 284 285 286 284 278 270 265 263 260 257 258 258 258 256 253 252 253 253 246 245 251 254 256 265 274 276 276 277 276 279 286 292 293 295 301 310 320 327 333 336 337 338 341 342 343 345 347 347 349 351 351 352 359 9 17 19 20 22 25 27 27
227 233 239 241 242 245 251 258 265 272 276 279 280 278 276 277 279 279 278 278 279 280 280 280 282 284 287 286 278 269 262 260 259 260 263 262 258 251 239 231 235 240 238 238 245 253 260 267 271 274 278 279 277 280 287 290 290 293 299 309 320 328 332 334 336 338 339 342 344 347 350 352 355 358 358 358 1 8 15 18 18 20 25 27 26
246 251 250 247 247 251 256 262 265 269 273 276 276 276 276 278 279 280 280 279 277 275 276 278 277 278 283 282 274 266 260 254 254 262 267 263 258 247 232 227 230 234 238 242 249 258 265 270 274 279 280 278 277 280 284 287 290 294 300 309 319 326 329 331 333 334 334 336 340 344 348 351 356 1 3 4 5 9 14 15 15 17 24 29 29
259 260 258 258 258 258 259 260 261 263 267 271 273 274 274 273 275 276 276 276 274 272 274 275 271 270 279 280 260 239 233 230 236 251 256 252 249 244 236 235 236 236 241 250 258 265 271 275 278 280 278 277 280 281 280 285 292 297 303 310 316 322 326 327 327 327 328 331 335 340 344 348 355 1 4 6 8 10 12 13 14 16 23 31 34
270 272 270 267 263 261 262 263 263 266 270 273 273 271 268 268 269 271 271 270 268 268 270 271 266 263 271 264 226 209 214 220 232 250 257 253 247 240 235 236 239 241 249 259 265 269 271 271 275 280 278 276 280 282 281 287 296 301 305 311 316 318 319 320 321 322 323 325 330 336 341 345 352 360 3 6 10 13 14 15 17 19 25 32 36
277 275 269 263 261 265 268 269 271 274 276 276 274 270 268 267 265 263 262 260 261 263 263 260 254 251 251 235 210 207 220 235 248 260 264 262 254 243 236 240 247 255 262 268 268 266 264 264 271 280 278 273 278 285 287 293 301 307 310 314 315 313 313 315 318 321 322 323 326 333 340 345 353 1 4 5 9 13 17 20 23 25 29 33 36
272 267 262 261 263 268 272 274 278 280 280 277 273 269 266 263 255 251 252 252 255 259 256 249 247 243 230 213 205 214 234 250 256 259 260 259 256 251 247 249 254 258 263 268 267 263 263 265 268 272 273 273 280 290 299 303 308 313 316 316 313 313 315 320 325 327 328 329 331 335 340 347 356 5 8 8 9 12 16 22 27 30 33 36 36
263 258 258 260 262 267 272 275 277 278 276 272 268 265 263 256 246 246 250 252 255 256 245 235 234 228 217 215 228 243 257 268 262 251 247 248 249 252 256 263 266 265 264 265 265 265 269 274 271 265 265 274 286 295 304 311 313 316 316 315 314 318 325 332 339 342 338 337 339 344 348 354 4 14 17 14 13 14 17 23 28 30 33 39 40
250 249 255 260 263 269 273 272 269 268 266 265 265 265 257 250 247 247 249 252 256 250 222 214 216 216 220 240 262 271 278 277 258 242 238 240 243 250 258 265 272 272 266 261 262 266 274 282 279 266 262 273 288 298 304 310 313 314 316 317 321 329 335 344 354 356 349 345 349 354 358 6 18 26 25 20 18 19 23 27 31 32 33 39 42
250 253 259 265 268 268 265 261 260 262 261 260 260 252 241 242 243 240 240 244 245 237 211 203 210 219 239 263 278 283 275 256 241 238 240 243 246 251 255 259 264 264 255 249 254 263 271 278 283 279 275 281 292 299 303 308 312 314 322 333 338 341 346 353 359 360 355 355 1 4 8 18 28 32 29 24 24 27 30 33 37 37 37 39 43
260 263 264 264 262 259 258 258 258 256 252 251 250 240 232 229 227 224 226 232 236 236 227 218 226 244 261 274 291 299 279 253 246 251 254 255 256 258 261 264 266 258 243 238 245 256 263 270 279 287 290 293 297 299 303 313 321 323 337 353 359 359 358 358 4 10 10 10 13 14 16 24 32 32 26 22 23 29 35 40 43 44 42 41 43
261 262 258 247 243 252 261 253 235 221 222 234 244 242 236 234 232 229 226 231 240 251 252 243 240 250 261 274 296 311 303 292 287 277 267 263 264 265 268 268 259 237 224 227 237 249 261 273 282 288 295 300 299 294 300 327 356 356 3 10 9 7 5 3 7 10 10 12 16 15 13 19 29 29 21 16 19 27 37 43 45 47 47 44 44
251 247 242 230 229 269 305 251 229 241 266 277 268 258 249 250 256 257 251 248 252 257 256 251 247 247 252 261 275 286 305 320 310 286 268 264 262 256 250 247 230 212 207 216 236 259 276 286 291 294 299 302 291 280 299 346 29 58 41 25 10 3 4 6 6 3 1 4 12 13 10 11 21 25 18 11 13 23 36 43 45 47 49 48 46
217 222 226 227 242 288 307 291 273 276 292 306 302 293 279 274 282 280 265 250 240 237 243 256 263 262 259 260 259 251 276 325 328 298 250 230 221 213 211 218 225 223 222 248 294 306 304 298 295 298 297 282 271 278 309 337 349 353 358 7 8 360 356 359 2 360 357 359 6 11 7 4 10 17 16 10 12 17 26 38 43 45 47 49 47
179 198 217 236 262 271 282 302 299 286 282 286 294 299 297 290 289 283 262 243 237 239 241 248 262 270 268 263 253 240 245 297 319 318 290 199 198 205 218 237 246 250 261 282 303 311 306 290 280 286 279 251 252 266 297 313 324 333 335 338 344 344 343 346 353 354 354 358 3 5 1 358 1 5 5 8 13 14 16 27 41 45 47 51 50
181 199 221 248 267 268 273 289 299 294 285 279 280 287 292 288 281 273 257 246 242 241 238 241 256 268 265 255 245 232 226 241 269 292 308 299 224 209 226 252 256 256 264 277 291 301 299 284 265 253 238 240 244 251 277 301 311 314 313 314 318 321 323 328 337 342 347 355 360 357 350 351 357 359 357 2 11 13 11 18 33 43 51 56 54
198 212 228 244 251 255 262 271 278 283 281 274 272 276 280 276 271 269 264 254 244 238 237 242 250 252 245 241 238 231 230 241 252 267 294 305 296 254 252 273 280 278 278 279 283 288 286 274 259 244 221 224 239 253 274 291 299 300 297 294 295 299 302 307 317 325 333 345 352 346 338 342 352 356 354 357 4 10 10 13 23 35 49 60 59
210 217 231 237 237 241 246 251 259 266 269 267 268 270 271 269 266 263 260 257 254 250 245 241 241 241 239 239 237 232 233 243 248 254 283 301 298 275 264 277 292 296 291 284 280 279 274 262 256 262 251 225 244 266 279 292 304 310 306 293 284 284 289 294 301 309 316 327 341 338 330 332 343 353 357 0 4 7 9 12 20 29 40 56 67